Temp
60 60 60 60 60 60 60 60 60 60 60 60 61 60 60 60 59 57 51 60 65 70 70 70 71 70 70 66 69 67 53 53 58 63 67 79 78 89 92 89 87 86 79 82 88
60 60 60 60 60 60 60 60 60 60 60 60 60 60 60 60 53 52 63 69 70 71 67 64 63 66 59 61 63 60 55 58 65 69 69 77 80 85 85 84 79 77 78 80 82
59 60 60 60 60 59 59 60 60 60 60 60 60 60 59 58 48 56 70 70 70 71 68 67 67 63 57 62 61 60 57 64 70 74 76 77 78 85 84 84 82 75 73 77 81
59 59 59 59 59 59 59 59 59 60 60 59 59 59 59 55 40 63 71 70 71 69 67 64 61 52 49 52 64 57 66 68 70 76 75 75 80 80 83 82 89 82 80 77 77
58 59 58 59 59 59 58 58 59 59 59 59 59 59 55 48 47 68 73 73 70 70 64 60 55 53 48 56 61 61 65 70 74 75 75 77 77 77 78 88 91 84 84 83 81
58 58 58 58 58 58 58 58 57 58 58 58 59 59 51 40 62 68 71 71 69 67 66 62 58 60 57 57 57 64 67 69 72 73 74 73 75 77 80 86 87 86 83 83 84
57 58 58 57 58 58 58 57 57 57 58 59 60 58 49 47 65 66 64 62 67 70 64 67 67 59 58 55 64 65 60 67 70 72 71 72 68 73 80 83 82 83 84 80 77
57 57 57 58 57 57 58 57 57 58 58 59 60 55 45 62 64 63 65 64 70 70 69 68 66 59 54 58 58 56 59 53 66 71 74 69 59 73 79 77 78 82 78 78 70
57 57 57 57 57 57 57 56 57 58 59 60 55 49 45 66 58 64 64 61 67 69 68 73 62 55 56 50 46 52 46 53 60 71 69 68 60 72 76 75 74 77 79 79 68
57 56 56 56 57 56 56 56 58 59 60 63 60 46 51 56 68 70 68 68 63 63 60 58 54 47 48 46 37 45 48 55 57 67 69 62 62 70 74 74 74 74 76 79 79
56 56 56 56 56 56 53 54 52 47 53 49 52 51 59 66 72 68 71 66 64 57 45 51 42 37 46 50 54 55 54 55 62 69 65 60 62 67 71 70 71 70 74 75 78
56 56 56 56 56 55 51 50 57 57 44 57 57 57 61 63 56 64 70 56 53 45 50 46 38 48 54 53 53 54 53 56 63 69 66 60 60 68 69 69 70 71 73 73 76
55 55 55 55 55 52 55 57 65 59 41 52 60 57 60 63 56 58 64 56 50 46 46 43 46 52 52 51 50 53 52 57 57 66 67 61 55 62 69 69 72 73 74 75 75
55 55 55 55 53 60 58 65 62 57 35 50 57 62 64 63 55 67 67 59 50 44 47 46 52 51 48 48 51 42 59 61 62 57 48 64 47 54 65 64 71 71 71 73 78
55 55 55 54 52 56 58 64 61 51 28 53 57 71 66 56 57 56 65 58 48 46 42 44 48 45 44 50 55 48 60 60 61 57 54 57 48 57 63 60 64 66 72 72 75
55 55 54 57 53 59 62 57 51 35 29 44 52 49 49 52 55 58 57 60 58 50 47 44 55 52 51 58 57 60 57 59 59 57 47 55 48 51 59 64 63 67 71 74 75
55 54 52 63 56 64 59 51 35 29 48 41 44 48 47 46 49 52 49 46 41 34 36 45 48 54 56 52 57 56 50 40 39 43 41 58 52 50 66 67 67 68 70 72 74
53 53 57 66 69 64 55 42 29 41 39 47 44 43 39 46 44 45 43 39 46 43 39 36 30 48 57 50 48 52 50 40 35 36 42 58 46 56 69 75 75 76 74 72 71
52 61 60 66 70 63 48 33 35 35 40 38 39 40 44 40 41 39 41 41 48 47 36 35 40 54 57 59 55 49 47 56 46 48 42 48 55 65 69 71 73 72 71 69 69
50 56 63 70 66 57 43 38 40 45 45 38 33 41 36 38 35 38 40 48 47 51 50 40 35 51 55 54 55 49 57 44 47 37 34 46 52 52 61 67 70 71 65 67 70
52 54 65 72 68 53 36 41 44 50 48 37 35 35 39 39 36 38 41 49 53 50 50 43 38 42 53 46 45 49 45 48 49 49 38 37 49 62 61 69 69 69 68 67 66
52 49 67 68 49 48 40 49 50 48 50 42 39 36 37 40 37 41 42 50 57 54 46 48 38 36 42 52 56 55 51 50 43 44 49 44 46 66 65 65 71 67 68 68 68
48 54 65 62 40 40 49 52 53 48 46 43 40 40 42 38 36 44 47 58 57 53 49 47 36 31 38 45 54 51 58 57 52 50 45 40 46 64 66 64 65 64 66 67 66
51 46 52 54 53 46 45 48 47 53 48 46 43 44 43 40 44 43 49 56 56 54 57 53 41 35 34 40 48 48 55 58 51 39 46 49 48 54 57 58 62 64 64 65 66
54 47 49 41 45 48 50 49 46 44 50 49 43 44 42 36 40 44 48 50 53 54 49 46 39 40 44 50 55 53 55 55 53 54 47 51 51 52 56 58 61 64 64 65 64
46 44 47 46 50 50 48 46 46 48 46 44 43 45 46 41 41 41 44 48 46 49 44 46 39 41 39 49 54 53 58 57 60 59 57 57 49 56 58 63 62 63 64 64 64
53 54 49 46 49 46 45 47 48 51 51 52 48 45 45 47 49 50 50 50 49 45 42 42 41 39 35 52 54 47 56 58 57 58 60 51 51 59 58 60 62 63 65 64 63
MSLP
1019.91 1019.47 1019.03 1018.58 1018.21 1017.89 1017.55 1017.29 1017.07 1016.67 1016.21 1015.92 1015.84 1015.42 1015.08 1014.74 1014.22 1013.69 1012.73 1011.20 1010.52 1009.89 1010.19 1009.99 1009.52 1009.19 1008.91 1008.76 1008.38 1008.17 1008.12 1006.29 1005.04 1004.42 1002.78 1000.70 1000.26 998.76 998.36 998.56 999.51 1000.52 1002.22 1003.21 1003.54
1019.82 1019.33 1018.87 1018.43 1018.01 1017.61 1017.23 1016.88 1016.57 1016.30 1016.03 1015.68 1015.57 1015.30 1014.86 1014.44 1013.84 1012.02 1010.11 1010.03 1009.66 1009.42 1009.91 1010.01 1009.43 1009.32 1009.28 1008.33 1008.06 1007.43 1006.35 1004.63 1004.73 1003.85 1002.43 1000.62 1000.34 999.34 998.67 998.69 1001.55 1002.15 1003.56 1003.35 1004.07
1019.75 1019.24 1018.73 1018.20 1017.74 1017.33 1016.88 1016.46 1016.22 1015.93 1015.74 1015.36 1015.29 1015.14 1014.89 1014.46 1013.05 1010.02 1008.88 1009.08 1009.05 1008.68 1009.22 1009.75 1009.60 1009.42 1009.09 1008.35 1007.43 1006.32 1004.84 1004.93 1004.07 1003.11 1002.17 1000.79 1000.08 999.33 999.14 998.50 1000.26 1002.10 1003.48 1003.75 1003.63
1019.62 1019.09 1018.56 1018.00 1017.44 1016.95 1016.66 1016.28 1015.89 1015.58 1015.40 1015.27 1015.15 1014.88 1014.64 1014.40 1012.36 1008.87 1008.83 1008.91 1008.80 1008.53 1008.90 1009.36 1009.64 1009.59 1009.02 1008.11 1007.05 1006.26 1005.10 1004.65 1003.75 1002.82 1002.09 1000.91 1000.05 999.37 998.66 997.64 998.39 1000.80 1002.18 1003.35 1003.74
1019.42 1018.82 1018.33 1017.76 1017.16 1016.65 1016.25 1015.86 1015.51 1015.17 1015.04 1014.95 1014.79 1014.70 1014.58 1013.70 1010.96 1009.31 1008.78 1008.69 1008.71 1008.66 1008.81 1009.15 1009.43 1009.41 1008.86 1007.67 1007.08 1005.51 1004.83 1004.21 1003.53 1002.53 1001.50 1000.97 1000.18 999.81 998.86 998.10 998.44 1000.35 1001.12 1002.07 1003.13
1019.26 1018.59 1017.94 1017.39 1016.83 1016.24 1015.70 1015.24 1015.00 1014.69 1014.52 1014.48 1014.38 1014.42 1014.28 1012.94 1009.90 1009.04 1008.88 1008.52 1008.35 1008.22 1008.16 1008.53 1008.67 1008.61 1008.22 1007.50 1006.84 1005.19 1004.75 1003.94 1003.02 1002.03 1001.54 1001.35 1000.33 1000.32 998.82 998.07 999.00 1000.10 1001.29 1001.91 1002.78
1018.91 1018.20 1017.54 1016.92 1016.30 1015.67 1015.11 1014.54 1014.28 1014.16 1014.02 1013.86 1013.88 1013.97 1013.39 1011.06 1009.28 1008.65 1009.03 1008.77 1008.24 1007.88 1007.92 1007.75 1007.75 1008.20 1008.04 1007.45 1006.07 1005.44 1004.63 1003.66 1002.55 1001.58 1001.11 1001.31 1000.74 1000.08 998.90 998.56 999.28 1000.14 1001.17 1002.38 1003.53
1018.48 1017.76 1017.05 1016.33 1015.65 1014.91 1014.20 1013.72 1013.52 1013.48 1013.27 1013.27 1013.29 1013.48 1012.16 1009.93 1009.42 1009.04 1008.53 1008.19 1007.79 1007.45 1007.22 1007.50 1007.59 1008.16 1008.42 1007.80 1006.29 1005.71 1004.71 1003.58 1001.74 1001.41 1000.57 1001.53 1000.87 999.93 999.01 999.57 999.70 1000.43 1002.01 1003.18 1004.91
1018.03 1017.32 1016.61 1015.90 1015.19 1014.31 1013.48 1012.83 1012.48 1012.67 1012.50 1012.68 1012.99 1012.89 1010.91 1008.64 1008.62 1007.70 1008.12 1008.03 1007.46 1007.22 1007.14 1007.15 1007.64 1008.33 1008.46 1007.87 1007.23 1005.65 1004.25 1002.70 1001.71 1000.75 1000.55 1000.84 1000.80 1000.04 999.45 999.77 1000.36 1000.46 1001.71 1003.89 1005.51
1017.64 1016.85 1016.09 1015.36 1014.76 1013.89 1013.02 1011.51 1010.88 1011.82 1011.83 1011.69 1011.88 1012.21 1010.07 1007.54 1006.35 1006.15 1006.77 1007.16 1007.36 1007.32 1007.41 1007.78 1008.04 1008.32 1008.09 1007.81 1006.23 1004.91 1003.67 1002.17 1001.33 1000.01 1000.28 1000.52 1000.71 1000.35 1000.05 1000.14 1000.52 1000.85 1001.52 1002.62 1003.69
1017.29 1016.50 1015.60 1014.78 1014.37 1013.77 1013.05 1011.60 1011.23 1011.85 1011.22 1010.27 1009.76 1009.03 1007.87 1007.14 1006.20 1006.05 1006.06 1006.37 1006.97 1007.50 1007.83 1008.23 1008.55 1008.23 1007.61 1006.93 1005.67 1004.66 1003.51 1001.93 1000.92 1000.03 1000.33 1000.59 1000.88 1000.75 1000.51 1000.52 1000.68 1000.92 1001.53 1002.30 1003.38
1016.95 1016.07 1015.09 1014.32 1013.55 1013.46 1013.47 1012.31 1011.56 1011.73 1009.96 1008.76 1008.20 1007.95 1007.59 1007.43 1006.54 1005.80 1005.84 1006.67 1007.15 1007.66 1008.11 1008.48 1008.25 1007.94 1007.51 1006.69 1005.71 1004.65 1003.34 1001.82 1000.77 1000.11 1000.36 1000.98 1001.05 1000.90 1000.87 1000.73 1000.84 1001.24 1001.60 1002.22 1003.30
1016.65 1015.63 1014.84 1013.73 1012.70 1012.63 1012.37 1011.71 1011.16 1011.37 1010.74 1007.55 1006.18 1006.13 1005.58 1005.72 1005.74 1005.61 1006.04 1006.64 1007.12 1007.70 1007.89 1007.78 1007.43 1007.71 1007.12 1006.24 1005.44 1003.94 1002.90 1001.41 1000.69 1000.02 1000.54 1001.18 1001.71 1001.62 1001.03 1001.01 1000.88 1001.04 1001.44 1002.11 1002.80
1016.21 1015.20 1014.50 1013.35 1012.61 1011.52 1011.48 1011.16 1011.17 1011.31 1010.59 1006.85 1005.13 1004.41 1004.46 1004.84 1005.05 1005.15 1005.47 1006.31 1006.89 1007.40 1007.73 1007.28 1007.08 1006.92 1006.65 1005.72 1005.60 1004.29 1002.22 1001.28 1000.56 1000.14 1000.52 1000.66 1001.49 1001.92 1001.21 1001.27 1001.11 1001.22 1001.82 1002.05 1002.50
1015.68 1014.78 1013.93 1014.01 1013.00 1011.80 1011.61 1011.26 1011.44 1011.49 1010.09 1007.22 1005.85 1004.84 1004.89 1005.58 1005.42 1005.59 1005.76 1005.98 1006.38 1007.20 1008.54 1006.66 1006.02 1006.90 1006.06 1004.83 1005.04 1002.97 1002.34 1001.26 1000.64 1000.58 1000.84 1001.09 1002.17 1001.53 1001.30 1001.52 1001.32 1001.34 1001.62 1001.98 1002.22
1015.13 1014.15 1013.71 1012.86 1012.90 1011.39 1011.24 1011.50 1011.80 1011.71 1009.93 1008.54 1007.59 1006.90 1006.60 1006.20 1005.79 1005.54 1005.95 1006.32 1006.37 1006.73 1007.65 1007.01 1005.77 1005.96 1004.95 1004.14 1004.10 1002.88 1002.44 1001.46 1001.07 1000.75 1001.08 1000.55 1001.07 1001.27 1000.27 1000.33 1001.17 1001.27 1001.63 1002.12 1002.22
1014.58 1013.47 1013.66 1012.37 1011.39 1010.70 1011.13 1011.45 1011.89 1011.69 1010.77 1009.73 1008.44 1007.70 1006.85 1006.11 1005.76 1005.43 1005.86 1006.18 1006.55 1006.97 1006.85 1006.20 1005.23 1004.68 1004.53 1003.93 1003.31 1002.86 1002.56 1001.94 1001.53 1000.70 1000.53 1000.20 1000.84 999.81 999.73 1000.04 1000.45 1000.97 1001.53 1002.09 1002.38
1014.17 1012.67 1011.84 1011.04 1010.52 1010.19 1010.70 1011.50 1011.98 1011.89 1011.41 1010.47 1009.45 1008.28 1007.48 1006.58 1006.43 1006.16 1006.11 1006.24 1006.49 1006.54 1006.72 1005.68 1004.66 1004.02 1003.46 1004.12 1003.14 1002.50 1002.50 1001.84 1001.04 1000.55 1001.08 1000.17 999.94 999.09 998.97 999.04 999.63 1000.53 1001.40 1002.21 1002.81
1013.58 1011.95 1011.26 1009.47 1009.83 1010.07 1010.83 1011.55 1012.48 1012.24 1011.82 1011.28 1009.97 1008.42 1007.38 1007.88 1007.35 1006.90 1006.19 1005.88 1005.44 1005.74 1006.28 1005.36 1004.37 1003.19 1002.95 1002.76 1003.55 1002.40 1001.97 1001.50 1001.14 1001.03 1001.14 1000.15 999.48 999.05 998.92 999.12 999.96 1000.84 1001.77 1002.65 1003.25
1014.13 1012.41 1010.29 1008.89 1009.28 1009.94 1011.06 1012.05 1012.14 1011.87 1011.56 1011.89 1011.44 1009.83 1008.89 1008.27 1008.04 1007.16 1006.20 1004.87 1004.78 1004.67 1004.77 1006.28 1005.34 1003.09 1003.54 1004.46 1003.92 1003.17 1001.78 1002.29 1001.34 1001.37 1001.39 1000.68 999.87 998.69 998.22 998.70 999.78 1000.87 1002.06 1003.11 1003.63
1013.73 1012.12 1009.67 1008.66 1009.14 1010.27 1011.23 1011.81 1011.91 1011.88 1011.55 1011.91 1011.72 1010.94 1009.67 1008.75 1008.19 1007.09 1005.60 1004.01 1003.84 1004.00 1004.91 1005.89 1006.73 1003.95 1003.30 1003.74 1003.00 1002.70 1002.49 1001.82 1000.55 1000.69 1000.87 1000.86 999.69 998.21 997.83 998.04 999.59 1001.00 1002.19 1003.21 1004.48
1014.36 1012.15 1009.61 1008.99 1010.13 1010.79 1011.23 1011.12 1011.25 1011.36 1011.19 1011.66 1011.78 1011.14 1010.15 1008.93 1007.90 1006.59 1004.93 1003.57 1003.18 1003.92 1004.88 1005.43 1006.86 1005.12 1003.51 1003.63 1002.46 1001.75 1001.23 1001.12 1000.86 1000.90 1000.50 1000.54 1000.28 998.27 998.50 999.06 999.97 1001.43 1002.52 1003.99 1005.24
1015.42 1012.19 1009.89 1010.05 1010.80 1011.32 1011.30 1010.88 1010.76 1010.74 1010.76 1010.89 1011.09 1010.93 1010.13 1009.28 1008.10 1005.62 1004.35 1003.25 1003.26 1004.00 1004.25 1005.56 1006.69 1005.51 1004.57 1004.12 1002.41 1001.46 1000.47 1000.26 1000.53 1000.78 1001.42 1001.25 1001.68 1000.17 1000.03 1000.84 1001.85 1002.98 1004.15 1005.35 1006.83
1015.74 1013.59 1012.43 1011.81 1011.69 1011.89 1011.45 1010.90 1010.50 1010.48 1010.51 1010.80 1010.85 1010.26 1009.41 1008.73 1007.59 1005.71 1004.13 1003.69 1004.11 1004.31 1004.44 1004.58 1005.61 1004.91 1004.45 1002.81 1001.54 1000.65 999.71 1000.00 1000.46 1001.89 1002.43 1001.49 1002.50 1002.42 1002.19 1002.39 1003.26 1004.24 1005.09 1006.26 1007.50
1016.15 1015.74 1015.46 1014.08 1012.81 1012.48 1011.58 1011.23 1010.65 1010.30 1010.32 1010.17 1010.04 1009.55 1008.99 1008.23 1007.45 1005.87 1004.84 1004.55 1004.82 1005.06 1005.25 1005.36 1004.91 1005.26 1003.78 1002.65 1001.41 1000.48 999.77 999.38 1000.15 1001.16 1002.10 1002.21 1003.11 1003.58 1003.37 1003.54 1004.02 1004.92 1006.11 1007.07 1008.33
1018.14 1017.88 1016.81 1015.40 1013.60 1012.58 1012.01 1011.58 1010.79 1010.09 1010.45 1009.73 1009.59 1008.82 1008.20 1007.72 1007.45 1006.49 1005.95 1004.44 1004.84 1005.31 1005.78 1006.27 1006.28 1005.64 1004.66 1002.34 1001.04 1000.06 999.46 999.62 1000.04 1000.50 1001.38 1002.46 1004.05 1004.26 1004.30 1004.21 1004.86 1005.45 1006.47 1007.79 1009.04
1019.07 1018.25 1017.27 1015.35 1014.07 1013.32 1012.54 1011.78 1010.91 1010.11 1009.87 1009.48 1008.86 1008.42 1007.49 1006.77 1006.91 1006.12 1005.75 1005.10 1005.05 1005.53 1006.40 1006.97 1007.01 1006.70 1004.27 1001.62 1000.94 1000.07 999.20 999.55 1000.45 1000.39 1000.17 1001.97 1003.66 1004.67 1005.24 1005.26 1005.43 1006.28 1007.07 1008.45 1009.77
Wind_Speed
19 18 18 18 17 17 17 18 18 18 16 16 17 17 18 19 20 15 19 14 10 13 14 11 9 10 8 9 9 5 6 14 21 19 17 15 8 15 11 6 10 9 11 11 11
19 19 19 19 19 18 18 18 19 19 18 17 17 16 17 20 17 17 18 20 21 24 9 11 9 8 5 6 8 9 13 21 6 10 12 21 13 20 2 2 7 16 13 18 15
20 20 20 21 21 19 19 17 18 18 18 17 16 15 15 16 8 7 5 2 6 15 14 11 12 9 11 12 9 8 19 7 14 17 15 20 15 12 9 21 17 22 19 20 23
21 22 22 22 22 21 20 20 20 18 18 17 15 14 13 9 6 5 8 6 5 7 12 9 10 6 4 9 17 14 18 17 11 21 20 22 14 13 11 10 25 27 29 18 20
22 23 23 23 23 23 20 21 19 18 17 17 16 13 6 5 14 9 19 10 6 4 6 9 10 7 9 7 14 21 16 14 18 23 19 14 17 12 9 7 17 25 22 24 21
22 23 24 24 24 22 21 19 18 18 16 16 14 11 5 16 11 19 12 10 12 7 10 12 8 14 10 13 17 9 19 17 16 22 18 15 14 7 7 7 18 25 21 20 16
22 25 25 24 24 25 23 20 18 17 17 17 14 9 10 22 8 19 18 15 16 14 12 13 8 6 8 10 19 18 14 17 19 20 18 7 13 10 9 6 15 18 15 11 10
25 24 24 26 24 24 23 22 20 19 17 15 12 6 9 13 12 16 13 14 13 14 7 11 3 4 4 9 15 14 13 14 22 18 19 9 15 9 8 3 10 11 15 17 18
25 25 25 26 25 24 24 23 24 18 15 10 4 5 10 10 8 15 14 11 12 11 6 7 3 5 9 10 9 11 11 19 18 18 8 13 7 8 7 3 5 8 10 23 31
26 26 27 25 25 24 23 27 20 3 8 8 7 4 7 5 5 7 14 14 9 10 7 6 5 6 5 9 13 13 16 15 19 20 16 8 8 7 9 5 6 6 8 9 10
28 27 29 26 23 20 13 8 5 2 5 8 8 9 16 15 12 3 5 3 7 5 8 8 4 8 13 16 17 16 13 17 16 14 12 8 9 10 7 5 7 6 7 5 8
29 29 29 27 24 16 6 4 8 5 12 15 19 24 22 17 16 12 4 4 5 7 9 9 15 14 14 19 18 19 19 17 12 13 16 7 9 10 7 7 8 8 7 5 8
28 30 27 27 25 3 6 5 5 6 5 12 14 13 16 19 21 14 10 9 9 6 13 16 16 15 18 18 21 21 20 15 10 16 13 8 3 11 11 3 8 8 8 6 10
29 28 25 24 7 5 2 5 6 2 3 4 2 4 2 1 6 12 7 9 6 10 12 13 19 16 18 20 16 18 18 17 16 8 8 14 12 6 13 6 12 10 10 8 8
30 27 25 9 6 4 4 7 6 1 1 12 8 5 5 5 3 2 4 4 10 12 6 11 15 19 20 20 18 19 18 15 14 15 7 15 8 13 11 10 10 9 11 8 9
30 27 20 1 4 3 6 4 2 2 5 8 3 7 7 8 12 7 3 7 7 7 6 19 10 6 14 19 22 17 19 12 12 10 10 18 8 11 16 17 7 7 7 8 9
32 31 14 6 4 5 3 2 2 6 14 9 16 14 18 14 10 12 10 8 11 2 6 8 16 15 16 15 23 19 11 4 4 9 4 17 11 9 21 11 9 10 9 8 8
34 28 7 7 5 2 1 3 4 8 6 14 10 20 7 8 3 4 4 9 12 11 5 5 1 7 8 9 10 15 9 3 5 6 7 17 9 16 14 19 19 16 12 8 7
29 3 4 4 7 3 3 4 4 5 7 7 16 6 6 3 3 2 6 8 10 14 7 3 8 9 12 10 11 8 10 20 3 6 2 5 4 5 13 15 17 15 11 9 8
6 4 3 4 7 1 5 6 5 8 10 2 4 7 11 5 4 4 3 7 11 8 8 3 5 8 12 8 10 15 3 6 5 8 7 7 15 6 13 21 17 19 10 10 9
1 3 3 6 4 4 3 2 6 14 9 1 3 6 8 8 4 3 5 7 12 7 7 7 1 2 8 5 9 8 12 7 3 6 6 6 9 8 10 19 21 17 14 11 16
6 4 4 4 4 4 5 11 6 11 8 3 3 5 5 10 3 4 5 3 10 8 7 6 2 5 13 18 16 10 12 8 4 3 2 6 4 10 15 14 16 11 17 23 24
7 4 5 6 4 4 8 9 10 10 7 1 4 5 5 4 5 9 5 5 8 6 3 4 2 2 4 4 9 6 15 10 3 7 7 5 1 7 21 23 24 25 23 21 25
4 5 5 5 5 6 9 13 15 9 6 4 5 7 10 4 5 9 8 9 10 6 8 4 6 3 7 5 4 4 6 9 8 5 2 5 10 13 17 22 21 23 22 21 22
5 4 4 7 10 15 12 13 17 16 5 7 2 16 8 3 6 9 6 7 7 1 6 5 5 2 6 11 7 6 6 11 9 11 8 10 14 10 13 19 19 22 21 21 22
5 5 4 14 13 9 9 14 16 15 9 11 9 16 7 5 4 4 10 2 4 4 3 4 5 7 5 11 13 9 7 15 10 6 8 19 11 8 6 14 17 21 21 20 20
3 6 4 9 8 8 11 17 19 13 6 9 7 6 8 10 6 15 9 5 4 3 4 3 3 5 7 7 10 5 14 9 11 5 6 20 11 12 14 15 18 18 18 22 21
Wind_Direction
344 340 338 335 333 330 328 327 325 323 318 318 319 320 321 319 310 295 274 236 245 259 243 277 275 273 303 236 242 247 222 233 231 227 247 273 266 251 241 86 52 60 80 96 110
340 336 334 331 328 327 322 322 318 315 315 312 312 319 326 323 305 279 247 251 256 261 253 269 267 246 256 261 227 199 218 235 246 243 242 261 259 277 229 233 76 87 76 80 77
335 331 330 324 324 320 317 315 311 309 309 311 312 315 321 321 296 229 46 207 275 263 217 246 277 294 253 238 226 245 236 241 242 261 266 277 285 267 243 212 152 132 123 109 125
332 330 327 323 320 320 317 312 310 309 307 307 307 309 314 315 295 110 116 69 18 341 186 227 245 250 278 251 234 244 242 245 256 246 261 268 286 289 289 183 141 145 143 147 165
330 331 327 323 320 318 314 309 305 300 299 297 294 294 308 252 250 282 290 282 259 176 211 222 240 226 232 273 254 234 242 240 245 258 265 279 269 276 304 219 143 139 150 161 176
329 328 324 320 316 315 308 302 299 295 292 287 286 284 243 254 263 262 292 231 217 248 265 202 214 221 276 246 252 273 233 247 237 246 256 264 284 292 293 132 117 139 153 161 171
329 329 326 321 317 315 308 298 295 292 292 284 277 259 239 247 279 304 303 296 293 272 241 272 257 23 335 275 265 262 256 239 243 241 242 249 289 231 246 111 137 144 141 90 49
332 328 323 323 318 312 308 302 296 293 287 281 265 254 252 259 257 266 282 269 272 292 216 247 337 338 260 285 302 275 248 232 238 235 235 156 256 246 252 110 142 136 124 107 86
328 325 323 323 323 319 311 303 294 287 270 253 243 195 261 252 212 237 229 252 281 260 277 250 260 250 289 246 278 253 244 221 235 219 234 184 233 236 260 251 168 167 140 139 151
327 326 325 323 323 320 316 300 276 275 229 193 233 190 255 243 270 176 189 202 231 273 238 259 226 229 225 231 216 225 219 215 218 213 212 195 195 238 251 234 204 174 148 153 155
329 328 328 324 324 323 328 326 26 151 218 221 216 227 300 313 296 206 240 213 192 219 245 190 232 229 229 233 241 238 251 221 218 212 196 201 168 222 245 204 195 182 157 183 150
328 328 328 323 319 321 298 317 31 330 292 259 247 249 263 271 278 283 156 152 224 242 234 225 220 248 242 254 247 241 244 218 220 227 186 193 189 223 242 222 176 173 182 217 143
328 329 327 322 316 313 228 23 4 15 284 292 230 226 237 214 234 251 175 187 232 263 238 228 233 226 243 250 244 242 235 217 204 211 189 143 219 207 232 229 189 162 180 205 164
329 327 328 327 311 335 208 351 3 356 291 285 156 164 169 169 243 215 213 238 180 230 265 243 219 220 238 240 245 258 239 245 207 200 188 164 201 234 213 218 181 172 183 209 149
330 329 326 310 301 305 360 0 359 206 10 353 21 22 344 198 99 303 256 299 231 262 333 239 197 204 242 229 216 238 250 230 246 207 153 181 141 215 206 213 202 178 179 199 163
330 328 331 195 213 260 69 330 307 259 354 340 327 304 286 281 252 158 255 212 275 243 184 284 303 288 249 226 229 247 255 245 241 198 213 183 124 208 207 194 172 163 165 185 163
330 320 320 289 271 112 109 347 330 52 323 336 317 308 312 278 242 244 226 207 221 152 261 263 246 232 230 239 226 241 235 238 206 193 169 171 177 221 198 179 168 167 193 195 172
328 314 244 222 257 145 214 346 14 347 275 322 307 309 231 2 264 301 217 243 220 255 344 241 326 173 224 209 237 237 202 265 146 132 176 159 197 220 203 191 177 170 188 176 174
323 313 265 262 192 122 4 10 323 309 295 304 310 262 309 54 14 230 234 256 226 204 184 258 216 157 231 189 201 296 197 220 110 109 88 187 302 217 208 203 169 163 159 174 152
313 286 279 302 131 39 55 312 353 319 316 100 300 316 324 30 240 197 233 234 249 184 143 97 346 230 186 111 261 223 260 220 244 167 155 187 215 226 187 198 165 162 137 135 131
224 302 268 318 113 9 26 329 297 3 357 171 290 291 297 330 274 247 260 262 194 176 134 108 173 279 137 187 226 187 237 239 200 155 142 153 214 208 142 144 148 149 144 138 98
328 310 325 13 45 331 348 334 8 359 332 196 237 259 277 317 322 268 247 289 130 125 183 89 193 257 184 201 241 243 222 224 103 252 242 135 270 122 107 105 139 124 100 100 101
308 276 349 19 10 350 327 335 10 337 324 306 289 223 268 295 301 281 188 218 174 65 139 124 231 243 92 291 260 264 241 208 67 32 28 94 332 62 94 93 101 102 103 103 104
301 353 346 330 354 356 317 360 359 351 306 350 293 284 304 312 283 302 116 68 65 97 56 126 169 282 154 226 183 198 254 107 97 81 136 153 109 83 95 102 103 100 103 105 106
1 6 31 304 314 313 6 349 8 354 360 351 280 342 336 346 312 340 96 126 80 71 17 25 342 325 314 292 219 257 180 124 179 174 179 163 132 130 124 119 117 111 114 111 113
13 355 327 291 294 346 9 346 359 350 9 330 334 335 324 330 335 305 317 49 99 173 101 357 0 20 299 276 236 207 186 194 221 195 201 139 121 127 114 115 120 120 122 122 117
326 295 288 284 318 4 354 339 349 355 352 330 309 320 325 327 318 280 272 283 90 108 84 76 52 344 278 196 197 205 190 206 76 165 164 154 141 145 144 134 129 129 123 120 116